Location: Newark
(50.1269°N, 26.8164°E)
Time: 21:04:08
(UTC+00:00)

N. Korean satellite - Visible Passes

Search period start: 21 October 2019 00:00
Search period end: 31 October 2019 00:00
Orbit: 455 x 508 km, 97.2° (Epoch: 20 October)

Date Brightness Start Highest point End Pass type
(mag) Time Alt. Az. Time Alt. Az. Time Alt. Az.
22 Oct 7.8 03:56:23 10° NNE 03:59:53 47° E 04:03:27 10° S visible
22 Oct 9.8 16:10:40 10° SW 16:13:08 18° W 16:15:39 10° NW visible
23 Oct 9.2 03:31:25 10° NE 03:34:28 25° E 03:37:33 10° SSE visible
23 Oct 8.5 15:44:29 10° SSW 15:47:39 34° W 15:50:53 10° NNW visible
24 Oct 10.2 03:06:57 10° NE 03:08:58 14° E 03:10:59 10° ESE visible
25 Oct 6.8 04:13:44 10° NNE 04:17:23 78° ESE 04:21:05 10° S visible
25 Oct 10.2 16:29:18 10° WSW 16:30:44 12° W 16:32:12 10° WNW visible
26 Oct 8.3 03:48:33 10° NNE 03:52:01 39° E 03:55:30 10° SSE visible
26 Oct 9.4 16:02:24 10° SSW 16:05:11 22° W 16:08:00 10° NW visible
27 Oct 9.5 03:23:41 10° NE 03:26:34 21° E 03:29:27 10° SE visible
27 Oct 8.0 15:36:25 10° S 15:39:43 43° W 15:43:06 10° NNW visible
28 Oct 10.3 02:59:34 10° ENE 03:01:01 12° E 03:02:27 10° ESE visible
29 Oct 7.2 04:05:51 10° NNE 04:09:30 63° E 04:13:11 10° S visible
29 Oct 10.0 16:20:41 10° SW 16:22:45 15° W 16:24:50 10° NW visible
30 Oct 8.7 03:40:44 10° NNE 03:44:06 32° E 03:47:29 10° SSE visible
30 Oct 9.0 15:54:11 10° SSW 15:57:12 27° W 16:00:17 10° NW visible
